Simultaneous Nadir Overpasses (SNOs) Predictions

Prediction of SNOs between METOP-B and TERRA Satellite Orbit:

Table of predicted SNOs for the next 14.0 days since TLE Epoch: 1/19/2018
Index Date (METOP-B) Time (METOP-B) Lat,Lon (METOP-B) SZA (METOP-B ) Date (TERRA) Time (TERRA) Lat,Lon (TERRA) SZA (TERRA ) Distance(km) Time Diff (sec)
1 01/20/2018 20:04:11 81.32, -73.32 103.71 01/20/2018 20:04:18 81.32, -73.34 103.71 0.41 7
2 01/20/2018 20:54:52 -81.32, 94.10 76.29 01/20/2018 20:53:45 -81.32, 94.26 76.31 2.66 67
3 01/23/2018 14:47:54 -81.32,-174.67 76.99 01/23/2018 14:49:07 -81.31,-174.70 76.97 0.55 73
4 01/23/2018 15:38:33 81.32, -6.82 103.06 01/23/2018 15:38:33 81.32, -7.01 103.04 3.26 0
5 01/23/2018 16:29:12 -81.33, 161.40 76.85 01/23/2018 16:27:58 -81.36, 161.37 76.87 2.70 74
6 01/26/2018 10:22:16 -81.32,-108.17 77.69 01/26/2018 10:23:21 -81.33,-108.03 77.64 2.60 65
7 01/26/2018 11:12:55 81.32, 59.66 102.37 01/26/2018 11:12:47 81.33, 59.64 102.36 0.67 8
8 01/29/2018 05:56:37 -81.32, -41.70 78.42 01/29/2018 05:57:35 -81.31, -41.81 78.41 1.84 58
9 01/29/2018 06:47:17 81.32, 125.73 101.58 01/29/2018 06:47:01 81.32, 125.84 101.58 1.91 16
10 02/01/2018 01:30:59 -81.32, 24.76 79.20 02/01/2018 01:31:49 -81.32, 24.74 79.18 0.42 50




NCC Satellite Simultaneous Nadir Overpasses (SNOs) Prediction Service
